SCP
0 0 0 0 0 0 0 0 0 0 0 0 0 0 0 0 0 0 0 0 0 0 0 0 0 0 0 0 0 0 0 0 0 0 0 0 0 0 0 0 0 0 0 0
0 0 0 0 0 0 0 0 0 0 0 0 0 0 0 0 0 0 0 0 0 0 0 0 0 0 0 0 0 0 0 0 0 0 0 0 0 0 0 0 0 0 0 0
0 0 0 0 0 0 0 0 0 0 0 0 0 0 0 0 0 0 0 0 0 0 0 0 0 0 0 0 0 0 0 0 0 0 0 0 0 0 0 0 0 0 0 0
0 0 0 0 0 0 0 0 0 0 0 0 0 0 0 0 0 0 0 0 0 0 0 0 0 0 0 0 0 0 0 0 0 0 0 0 0 0 0 0 0 0 0 0
0 0 0 0 0 0 0 0 0 0 0 0 0 0 0 0 0 0 0 0 0 -0 -0 -0 -0 -0 -0 0 0 0 0 0 0 0 0 0 0 0 0 0 0 0 0 0
0 0 0 0 0 0 0 0 0 0 0 0 0 0 0 0 0 0 0 0 0 0 0 0 0 0 0 0 0 0 0 0 0 0 0 0 0 0 0 0 0 0 0 0
0 0 0 0 0 0 0 0 0 0 0 0 0 0 0 0 0 0 0 0 0 0 0 0 0 0 0 0 0 -0 -0 -0 0 0 0 0 0 0 0 0 0 0 0 0
0 0 0 0 0 0 0 0 0 0 0 0 0 0 0 0 0 0 0 0 0 0 0 0 0 0 0 0 0 -0 -0 -0 0 0 0 0 0 0 0 0 0 0 0 0
0 0 0 0 0 0 0 0 0 0 0 0 0 0 0 0 0 0 0 0 0 0 0 0 0 0 0 0 0 -0 -0 -0 0 0 0 0 0 0 0 0 0 0 0 0
0 0 0 0 0 0 -0 0 0 0 0 0 0 0 0 0 0 0 0 0 0 0 0 0 0 0 0 0 0 -0 -0 -0 0 0 0 0 0 0 0 0 0 0 0 0
0 0 0 0 0 0 0 0 0 0 0 0 0 0 0 0 0 0 0 0 0 0 0 0 0 0 0 0 0 0 -0 -0 -0 0 0 0 0 0 0 0 0 0 0 0
0 0 0 0 0 0 0 0 0 0 0 0 0 0 0 0 0 0 0 0 0 0 0 0 0 0 0 0 0 0 0 0 0 0 0 0 0 0 0 0 0 0 0 0
0 0 0 0 0 0 0 0 0 0 0 0 0 0 0 0 0 0 0 0 0 0 0 0 0 0 0 0 0 0 0 0 0 0 0 0 0 0 0 0 0 0 0 0
0 0 0 0 0 0 0 0 0 0 0 0 0 0 0 0 0 0 0 0 0 0 0 0 0 0 0 0 0 0 0 0 0 0 0 0 0 0 0 0 0 0 0 0
0 0 0 0 0 0 0 0 0 0 0 0 0 0 0 0 0 0 0 0 0 0 0 0 0 0 0 0 0 0 0 0 0 0 0 0 0 0 0 0 0 0 0 0
0 0 0 0 0 0 0 0 0 0 0 0 0 0 0 0 0 0 0 0 0 0 0 0 0 0 0 0 0 0 0 0 0 0 0 0 0 -0 -0 -0 0 0 0 0
0 0 0 0 0 0 0 0 0 0 0 0 0 0 0 0 0 0 0 0 0 0 0 0 0 0 0 0 0 0 0 0 0 0 0 0 -0 -0 -0 -0 0 0 0 0
0 0 0 0 0 0 0 0 0 0 0 0 0 0 0 0 0 0 0 0 0 0 0 0 0 0 0 0 0 0 0 0 0 0 0 0 0 0 0 0 0 0 0 0
0 0 0 0 0 0 0 0 0 0 0 0 0 0 0 0 0 0 0 0 0 0 0 0 0 0 0 0 0 0 0 0 0 0 0 0 0 -0 0 0 0 0 0 0
0 0 0 0 0 0 0 0 0 0 0 0 0 0 0 0 0 0 0 0 0 0 0 0 0 0 0 0 0 0 0 0 0 0 0 0 0 0 0 0 0 0 0 0
0 0 0 0 0 0 0 0 0 0 0 0 0 0 0 0 0 0 0 0 0 0 0 0 0 0 0 0 0 0 0 0 0 0 0 0 0 0 0 0 0 0 0 0
0 0 0 0 0 0 0 0 0 0 0 0 0 0 0 0 0 0 0 0 0 0 0 0 0 0 0 0 0 0 0 0 0 0 0 0 0 0 0 0 0 0 0 0
0 0 0 0 0 0 0 0 0 0 0 0 0 0 0 0 0 0 0 0 0 0 0 0 0 0 0 0 0 0 0 0 0 0 0 0 0 0 0 0 0 0 0 0
0 0 0 0 0 0 0 0 0 0 0 0 0 0 0 0 0 0 0 0 0 0 0 0 0 0 0 0 0 0 0 0 0 0 0 0 0 0 0 0 0 0 0 0
0 0 0 0 0 0 0 0 0 0 0 0 0 0 0 0 0 0 0 0 0 0 0 0 0 0 0 0 0 0 0 0 0 0 0 0 0 0 0 0 0 0 0 0
0 0 0 0 0 0 0 0 0 0 0 0 0 0 0 0 0 0 0 0 0 0 0 0 0 0 0 0 0 0 0 0 0 0 0 0 0 0 0 0 0 0 0 0
0 0 0 0 0 0 0 0 0 0 0 0 0 0 0 0 0 0 0 0 0 0 0 0 0 0 0 0 0 0 0 0 0 0 0 0 0 0 0 0 0 0 0 0
Wind_Speed
2 2 5 10 12 12 10 7 5 5 6 11 15 13 13 14 14 14 14 13 11 9 7 7 6 6 6 7 6 5 4 3 2 2 2 1 0 1 1 1 1 2 2 2
1 2 4 9 13 11 10 9 8 7 5 10 12 10 11 14 15 15 14 13 11 9 8 8 7 7 7 8 7 6 5 4 3 3 2 1 1 1 1 1 1 1 1 2
2 4 2 6 8 8 6 6 6 6 7 12 12 13 11 12 14 13 13 11 10 9 7 7 7 6 7 7 7 7 7 7 6 5 4 3 3 2 2 2 2 1 1 2
1 3 3 3 2 2 2 3 5 4 7 10 10 10 5 6 10 12 12 10 9 7 7 6 6 6 6 7 7 7 7 7 7 6 5 5 4 4 4 2 2 2 2 2
3 2 1 2 1 1 1 1 3 5 8 10 11 5 4 8 10 9 8 7 6 5 4 5 6 6 6 7 6 7 7 7 6 6 6 6 6 5 4 3 2 2 2 2
3 2 3 4 3 1 2 2 2 4 6 8 8 5 6 12 13 11 9 6 5 5 4 5 5 5 5 5 6 6 6 5 6 6 6 6 6 5 4 3 3 3 3 3
2 2 5 5 2 2 2 3 4 3 5 4 3 4 9 12 10 8 7 6 5 4 4 4 4 4 4 5 5 4 4 5 6 6 5 6 5 5 5 5 4 4 4 4
3 2 6 3 2 3 5 3 3 3 4 4 6 7 8 8 8 9 8 6 5 4 4 4 3 3 4 4 4 3 3 5 6 6 6 6 6 6 6 6 5 5 5 5
7 7 5 3 4 3 3 2 3 3 4 5 5 6 7 7 8 8 7 6 5 4 5 5 3 1 3 4 2 2 3 4 4 5 5 6 6 6 6 6 5 4 4 4
3 5 4 4 3 2 3 4 4 5 5 4 5 6 7 7 7 8 7 6 5 4 5 5 4 3 3 2 0 1 1 2 2 3 4 5 5 5 5 5 5 5 4 4
4 4 2 4 5 4 3 4 4 4 3 4 4 5 5 6 7 7 6 6 5 4 5 6 5 4 3 2 2 1 0 1 1 2 2 3 4 4 4 4 5 4 3 3
8 7 7 6 6 4 3 3 3 3 4 4 3 5 5 6 5 6 7 6 6 6 6 6 5 4 3 2 3 3 1 0 0 0 1 1 2 2 4 5 7 9 7 5
6 5 6 3 4 4 3 2 2 2 3 4 5 4 4 5 5 6 7 7 7 7 7 6 5 4 3 2 4 3 2 1 0 0 0 0 1 2 3 4 6 9 11 10
5 6 4 4 4 4 3 1 1 2 3 3 4 4 5 5 6 7 7 7 7 7 6 5 5 5 3 2 4 3 2 1 1 0 0 0 1 1 1 2 3 4 6 10
7 6 6 5 5 3 2 1 0 3 4 5 4 5 6 6 7 8 8 8 7 6 6 5 5 5 2 2 3 3 3 1 1 1 1 1 1 1 2 2 2 3 3 5
7 5 6 6 6 4 3 2 1 3 4 4 5 6 6 6 7 7 7 7 7 8 7 6 6 5 2 2 3 3 2 3 3 2 2 2 2 2 2 2 3 3 4 3
10 8 7 6 6 5 4 4 3 4 4 5 6 6 6 6 6 7 8 7 6 6 6 5 6 5 2 3 3 3 3 2 4 3 2 2 2 2 2 2 2 3 3 4
11 11 10 9 7 6 4 4 4 4 4 4 5 5 5 6 6 8 8 8 7 6 5 5 6 5 1 2 3 3 3 3 2 2 2 2 2 2 2 2 2 2 2 3
8 9 9 8 8 6 5 4 4 4 4 4 4 5 5 5 6 7 7 7 7 7 8 8 10 4 1 2 4 3 4 3 3 2 2 3 3 3 2 2 2 2 2 2
8 9 9 8 7 6 5 4 3 3 3 2 3 4 5 6 6 6 6 5 5 5 8 9 7 3 2 2 4 3 4 4 4 3 3 3 3 3 2 2 2 2 2 2
10 9 9 8 7 6 5 4 3 3 3 2 2 4 5 6 6 5 5 6 6 6 7 10 5 2 1 2 4 3 4 4 4 3 3 3 3 3 3 2 2 2 2 2
9 9 9 8 6 5 4 4 4 3 3 3 3 3 4 5 6 6 5 5 7 10 8 5 4 4 3 3 3 4 4 4 3 3 3 3 3 3 3 3 3 2 2 2
8 8 8 8 7 5 3 3 4 3 3 4 4 4 4 5 4 4 6 6 6 11 8 5 7 7 4 3 3 4 4 4 4 4 4 4 4 4 3 4 3 3 3 3
8 8 8 6 6 5 4 5 4 3 4 4 4 4 4 4 4 4 5 9 12 12 6 7 10 6 3 3 3 4 4 4 4 3 3 3 3 3 3 3 3 3 3 4
8 8 7 7 7 6 6 4 3 3 3 3 5 5 3 3 4 5 6 7 11 10 6 8 9 4 2 3 3 4 4 4 4 4 4 4 3 3 3 3 4 4 4 4
7 7 7 8 7 5 4 4 3 3 3 3 4 4 3 3 4 5 4 6 7 8 6 4 4 2 1 2 3 4 4 4 4 4 4 4 4 4 4 4 5 4 4 4
5 4 4 4 4 4 4 4 4 4 4 4 4 4 3 3 4 4 5 4 5 5 4 4 3 2 2 2 3 3 4 4 4 4 4 4 4 4 4 5 4 4 4 4
Wind_Direction
91 54 40 34 24 29 40 30 40 26 11 353 344 340 345 352 358 7 14 20 20 21 19 17 17 13 9 12 7 16 41 55 46 53 71 77 103 168 197 201 201 202 197 199
15 355 23 35 22 24 30 22 22 19 4 339 331 341 356 1 2 6 8 10 12 17 18 16 15 11 11 17 14 24 37 36 27 32 31 359 310 284 292 292 280 197 215 223
322 316 16 20 5 16 37 33 16 5 328 329 341 345 349 355 359 358 356 356 0 5 6 7 8 9 11 14 19 31 32 27 21 18 17 2 0 7 352 331 329 308 262 240
53 39 43 275 271 353 27 52 19 345 330 335 329 313 307 357 356 347 343 343 343 346 352 355 1 7 11 20 25 28 27 23 19 18 14 5 9 7 2 360 349 325 298 274
94 85 289 289 312 0 322 316 351 336 334 338 334 331 344 353 351 334 325 322 320 326 334 346 359 360 14 19 18 22 18 14 11 13 14 13 10 359 356 353 347 333 317 308
106 133 227 244 267 278 162 280 301 327 326 334 356 20 326 329 332 328 329 326 325 329 340 348 347 356 17 12 14 8 359 2 7 13 17 13 4 356 352 352 350 349 351 351
125 202 258 248 275 101 152 257 290 296 298 314 324 253 277 305 314 316 319 319 326 331 328 324 333 354 5 2 355 341 351 11 16 13 16 17 9 8 5 7 12 16 16 10
148 202 258 230 132 166 213 235 260 273 280 288 285 284 294 305 316 326 330 328 328 324 314 313 328 349 345 337 327 352 19 27 22 17 17 19 18 17 17 18 24 22 20 16
188 212 237 212 202 214 193 230 263 265 283 295 296 301 310 313 321 325 327 325 324 318 310 311 311 300 305 309 328 27 39 34 27 25 25 23 25 21 19 20 22 19 18 15
234 255 237 223 227 241 218 231 260 273 285 292 294 301 308 313 321 327 328 326 324 323 315 305 300 284 264 280 243 99 60 37 32 34 32 30 29 25 25 20 18 16 15 10
236 255 233 241 226 230 246 258 278 296 288 291 300 307 307 312 315 319 321 319 320 310 296 291 293 285 273 237 168 153 118 32 36 40 42 37 34 29 21 20 17 14 6 3
211 206 182 216 217 211 228 263 290 309 317 320 311 304 309 309 307 311 315 317 320 316 302 294 290 284 275 218 177 170 192 265 355 26 42 43 28 19 24 26 27 35 35 30
190 172 172 192 186 191 207 243 283 302 306 310 313 307 312 306 305 313 315 320 320 314 303 295 290 285 273 211 180 179 191 206 201 98 70 65 27 22 10 5 20 31 30 32
159 130 145 178 184 187 189 211 299 328 321 312 309 316 320 314 313 320 319 315 312 311 309 301 293 288 274 200 179 179 175 178 161 157 113 97 86 56 37 31 16 1 8 26
178 167 167 169 165 168 168 168 1 329 324 326 321 325 327 325 318 313 312 314 318 323 325 322 310 301 288 184 173 170 160 154 137 121 106 97 95 85 65 53 43 17 8 13
169 154 146 152 171 178 178 191 250 291 304 308 314 318 316 311 307 308 313 323 329 324 321 319 310 303 279 178 161 157 163 169 148 126 106 100 97 95 81 65 50 38 28 9
150 167 174 180 189 194 202 213 228 259 283 294 301 307 315 323 326 325 324 324 316 304 304 309 306 306 265 178 161 156 150 146 134 117 112 117 116 111 106 94 75 55 30 24
180 181 176 175 179 192 213 229 241 257 267 281 301 315 325 327 320 314 316 320 324 324 323 322 318 315 266 175 159 150 146 140 131 131 126 121 121 118 114 108 97 78 45 40
178 170 171 175 178 181 199 222 240 257 276 290 305 311 308 306 306 308 315 325 333 331 325 326 327 328 274 192 156 147 147 142 131 126 127 128 119 118 120 121 115 101 84 69
174 170 171 178 181 183 199 217 233 258 274 283 302 313 316 314 314 316 318 313 294 284 298 311 315 305 265 195 158 149 152 150 145 139 134 136 139 140 140 141 139 129 115 103
174 170 172 177 186 197 204 205 212 244 271 285 280 288 295 300 307 313 317 312 302 309 313 316 315 293 248 193 162 151 154 153 153 154 154 155 155 156 159 161 159 154 146 131
174 172 175 175 180 197 208 200 206 228 259 278 282 288 300 307 313 312 292 271 288 314 319 305 300 285 265 190 162 161 162 161 158 158 161 164 167 172 177 176 174 168 159 152
174 174 173 176 183 193 198 206 212 219 240 258 272 284 285 282 283 289 301 298 302 313 315 295 297 294 254 173 166 167 167 168 169 171 175 176 178 180 182 183 178 169 163 161
172 175 177 173 160 167 203 226 221 225 240 258 261 263 264 283 293 271 265 298 311 315 310 304 307 294 209 168 169 170 174 176 176 175 173 173 175 178 179 176 173 168 165 162
176 171 164 161 173 197 212 213 217 237 250 267 277 275 259 235 251 281 296 301 312 320 315 317 321 303 177 170 177 178 181 184 181 174 174 173 177 179 178 174 171 167 166 164
180 182 184 189 192 194 189 184 201 221 227 258 277 278 280 276 272 280 291 303 314 322 322 317 317 300 202 188 188 186 185 186 184 180 181 180 181 177 175 175 172 168 167 162
189 186 182 194 205 194 183 186 202 218 214 216 242 262 274 287 295 301 309 312 317 319 318 317 312 289 240 208 197 190 184 183 182 182 181 181 180 181 181 177 169 164 160 158